Regional Weather Roundup
Issued by NWS Charleston, SC

Current Version | Previous Version | Graphics & Text | Print | Product List | Glossary On
Versions: 1 2 3 4 5 6 7 8 9 10 11 12 13 14 15 16 17 18 19 20 21 22 23 24 25 26 27 28 29 30 31 32 33 34 35 36 37 38 39 40 41 42 43 44 45 46 47 48 49 50
000
ASUS42 KCHS 252010
RWRCHS
REGIONAL WEATHER ROUNDUP
NATIONAL WEATHER SERVICE CHARLESTON SC
300 PM EST SUN JAN 25 2015

NOTE: "FAIR" INDICATES FEW OR NO CLOUDS BELOW 12,000 FEET WITH NO
SIGNIFICANT WEATHER AND/OR OBSTRUCTIONS TO VISIBILITY.

NOT ALL STATIONS ARE QUALITY CONTROLLED BY THE NATIONAL
WEATHER SERVICE. USE DATA WITH CAUTION...ESPECIALLY
DEWPOINT OBSERVATIONS.

SCZ027-030-031-034>040-042>050-252100-
...SOUTHEAST SOUTH CAROLINA...

CITY           SKY/WX    TMP DP  RH WIND       PRES   REMARKS
N CHARLESTON   MOSUNNY   57  35  43 S12       29.90F
WATERFRONT PRK   N/A     52 N/A N/A SE10        N/A
MOUNT PLEASANT FAIR     N/A N/A N/A SE7       29.90F
PINOPOLIS      NOT AVBL
MONCKS CORNER  FAIR      61  32  33 S6        29.88F
SUMMERVILLE    FAIR      61  34  36 S7        29.89F
BEAUFORT MCAS  MOSUNNY   56  39  53 SE8       29.90F
BEAUFORT ARPT  FAIR      55  41  58 SE7       29.90S
HILTON HEAD IS SUNNY     54  39  58 S8        29.92F
WALTERBORO     CLEAR     61  28  29 S9        29.88F
ALLENDALE      FAIR      61  28  29 VRB5      29.86F

...SOUTHERN MIDLANDS AND PEE DEE...

CITY           SKY/WX    TMP DP  RH WIND       PRES   REMARKS
GEORGETOWN     NOT AVBL
KINGSTREE      NOT AVBL
ORANGEBURG     SUNNY     60  31  33 SW10G17   29.85F
BARNWELL       FAIR      63  32  31 SW10      29.86F
AIKEN          FAIR      59  30  33 S8G16     29.85F
MANNING        NOT AVBL
COLUMBIA       SUNNY     61  30  31 S12       29.82F
SUMTER         SUNNY     59  33  37 S10       29.83F
FLORENCE       SUNNY     59  33  37 S13       29.86F
MYRTLE BEACH   SUNNY     52  36  54 S13       29.93F
N MYRTLE BEACH SUNNY     51  34  52 SE7       29.91F

$$

GAZ063-065-086>088-099>101-113>116-118-119-134>141-150-252100-
...SOUTHEAST GEORGIA...

CITY           SKY/WX    TMP DP  RH WIND       PRES   REMARKS
SAVANNAH ARPT  MOSUNNY   61  28  28 S10       29.90F
HUNTER AAF     SUNNY     59  38  45 S8        29.89F
FORT STEWART   SUNNY     62  30  30 SW12G18   29.89F
STATESBORO     SUNNY     61  33  35 SW9G17    29.88F
SYLVANIA       CLEAR     60  35  38 SW7       29.88F
CLAXTON        FAIR      61  34  36 SW7G16    29.90S

...CSRA...CENTRAL AND FAR SOUTHEAST GEORGIA...

CITY           SKY/WX    TMP DP  RH WIND       PRES   REMARKS
THOMSON        SUNNY     61  34  36 S8G17     29.86F
AUGUSTA-BUSH   SUNNY     61  29  29 SW8       29.84F
AUGUSTA-DANIEL SUNNY     61  27  27 SW12      29.83F
SWAINSBORO     FAIR      63  10  13 SW10      29.88S
VIDALIA        SUNNY     61  34  36 SW13      29.89F
EASTMAN        FAIR      61  33  34 S12G18    29.90F
HAZLEHURST     FAIR      62  33  33 SW12G17   29.89F
ALMA           SUNNY     60  28  29 SW12      29.91F
WAYCROSS       SUNNY     65  35  32 SW10      29.92F
JESUP          FAIR      64  36  34 W5        29.92F
BAXLEY         FAIR      63  32  31 SW13      29.91S
BRUNSWICK      SUNNY     61  37  41 SE10      29.93F
SAINT SIMONS   SUNNY     56  41  57 SE10      29.93F

$$

SCZ027-028-034-036>038-045-046-048>050-GAZ119-141-252100-
...LAKE AND SUPPLEMENTAL COASTAL OBSERVATIONS...

STATION/POSITION TIME  TEMP    WIND        PRES    WAVE   SWELL
                       AIR SEA DIR/SP/G            HT/PER HT/PER/DIR
                 (UTC) (F)     (DEG/KT/KT) (MB)    (FT/S) (FT/S/D)
UPR LAKE MARION  NOT AVBL
WINYAH BAY       1900   50     120/  5     1013.0S
LAKE MURRAY      1900   65      CALM  /  2 1009.8F
ACE BASIN NERRS  1900   55     170/  2     1013.0F
FORT PULASKI     2000   54 54  180/  8/ 13 1013.3S
SAPELO ISLAND    1900   58     160/  9     1014.0S

$$

ANZ835-935-AMZ111-154-330-350-352-354-370-450-454-472-252100-
...C-MAN AND BUOY OBSERVATIONS...

STATION/POSITION TIME  TEMP    WIND        PRES    WAVE   SWELL
                       AIR SEA DIR/SP/G            HT/PER HT/PER/DIR
                 (UTC) (F)     (DEG/KT/KT) (MB)    (FT/S) (FT/S/D)
BUOY 41004       2000   55 70  200/  8/ 10 1013.1F   3/ 6   2/ 6
BUOY 41008       2000   51 56  190/ 12/ 14 1013.6F   1/10
FOLLY BEACH CMAN 1900   50     170/  8/  8 1014.0F
CAPERS NEARSHORE 1900   50     180/  8/  8   N/A
FRIPP NEARSHORE  1900   52     200/  8/ 10   N/A


STATION/POSITION TIME  TEMP    WIND        PRES    WAVE   SWELL
                       AIR SEA DIR/SP/G            HT/PER HT/PER/DIR
                 (UTC) (F)     (DEG/KT/KT) (MB)    (FT/S) (FT/S/D)
5E ST. MARYS GA  2000      59                N/A     1/11
FRYING PAN BUOY  2000   53 67  120/  2/  6 1014.0F   4/ 7   3/190/ 7
BUOY 41025       2000   49 69  230/  2/  4 1013.6S   4/10   3/140/10
CAPE LOOKOUT NC  1900   48     210/  5/  8 1013.6F
BUOY 41002       1903   65 72  270/  8/ 14 1014.1    7/ 8   7/250/ 8
BUOY 41010       2000   65 76  240/  6/  8 1015.1S   5/ 7   5/340/ 7
ST AUGUSTINE FL  2000   55     140/  8/  9 1014.9F


$$



USA.gov is the U.S. government's official web portal to all federal, state and local government web resources and services.